Location: Chateh
(58.6667°N, 118.6000°W)
Time: 10:14:54
(UTC+00:00)

PCSat - Pass Details

Date: 08 December 2023
Orbit: 784 x 791 km, 67.0° (Epoch: 01 March)

Event Time Altitude Azimuth Distance (km) Brightness Sun altitude
Exits shadow 14:19:01 23° 280° (W) 1,628 10.6 -15.2°
Maximum altitude 14:21:58 43° 339° (NNW) 1,100 10.0 -14.8°
Drops below altitude 10° 14:27:09 10° 51° (NE) 2,365 12.4 -14.2°
Sets 14:29:42 0° 58° (ENE) 3,297 13.3 -13.9°
